Adrie De Vries

Adrie De Vries

Statistiques 2021

  • Courses courues : 38
  • Nb de victoires : 4
  • Nb de places : 9
  • Écart gagnant : 16
  • Réussite à la gagne : 11%
  • Réussite à la place : 24%
Musique : 10p 4p 3p 4p 5p 4p 5p 5p 9p 9p 6p 5p 10p 4p 11p 5p 1p 12p
DateRangCatégorieAlloc.Dist.HippodromeChevalPoidsSpé.
08/04/21 10 Galop 22 671€ Uae-Meydan Deep Intrigue 60 Plat
08/04/21 4 Galop 25 735€ Uae-Meydan Irish Freedom 62 Plat
08/04/21 3 Galop 29 411€ Uae-Meydan Gabr 56,5 Plat
08/04/21 4 Galop 29 411€ Uae-Meydan Endifaa 57 Plat
08/04/21 5 Galop 25 735€ Uae-Meydan Laieth 56 Plat
08/04/21 4 Galop 25 735€ Uae-Meydan Madkhal 56,5 Plat
08/04/21 5 Galop 21 446€ Uae-Meydan Mayehaab 55,5 Plat
27/03/21 5 Galop 10 810 810€ Uae-Meydan Salute The Soldier 57 Plat
27/03/21 9 Galop 4 504 504€ Uae-Meydan Simsir 57 Plat
27/03/21 9 Galop 3 603 603€ Uae-Meydan Glen Force 57 Plat
27/03/21 6 Galop 1 351 351€ Uae-Meydan Al Tariq 57 Plat
27/03/21 5 Galop 675 675€ Uae-Meydan Al Roba'A Al Khali (Ar) 57 Plat
11/03/21 10 Galop 21 446€ Uae-Meydan Davy Lamp 55,5 Plat
11/03/21 4 Galop 29 411€ Uae-Meydan Mayehaab 58,5 Plat
11/03/21 11 Galop 25 122€ Uae-Meydan Harbour Spirit 56,5 Plat
11/03/21 5 Galop 20 220€ Uae-Meydan Bin Muhaarar 60 Plat
06/03/21 1 Galop 351 351€ Uae-Meydan Salute The Soldier 57 Plat
06/03/21 12 Galop 205 405€ Uae-Meydan Madkhal 57 Plat
06/03/21 5 Galop 135 135€ Uae-Meydan Endifaa 55 Plat
11/02/21 8 Galop 58 558€ Uae-Meydan Moraawed 55 Plat
11/02/21 1 Galop 263 963€ Uae-Meydan Salute The Soldier 57 Plat
11/02/21 5 Galop 32 432€ Uae-Meydan Rb Kinetic (Ar) 55 Plat
04/02/21 8 Galop 45 045€ Uae-Meydan Ajmal 57 Plat
04/02/21 4 Galop 112 612€ Uae-Meydan Grand Dubai 57 Plat
28/01/21 10 Galop 61 261€ Uae-Meydan Escobar 60 Plat
28/01/21 9 Galop 79 279€ Uae-Meydan Cape Cavalli 55,5 Plat
28/01/21 3 Galop 45 045€ Uae-Meydan Endifaa 55 Plat
28/01/21 2 Galop 44 144€ Uae-Meydan Brraq 57 Plat
21/01/21 3 Galop 205 405€ Uae-Meydan Salute The Soldier 57 Plat
21/01/21 1 Galop 146 846€ Uae-Meydan Lord Glitters 57 Plat
14/01/21 5 Galop 25 122€ Uae-Meydan Madkhal 54,5 Plat
14/01/21 5 Galop 45 012€ Uae-Meydan First Prophet 57 Plat
14/01/21 3 Galop 22 671€ Uae-Meydan Hard Taskmaster 56 Plat
14/01/21 7 Galop 21 446€ Uae-Meydan Alla Mahlak 57 Plat
07/01/21 7 Galop 23 284€ Uae-Meydan Laieth 60 Plat
07/01/21 11 Galop 25 735€ Uae-Meydan Boerhan 59 Plat
07/01/21 4 Galop 25 122€ Uae-Meydan Madkhal 56,5 Plat
07/01/21 1 Galop 29 258€ Uae-Meydan Brraq 57 Plat
17/12/20 1 Galop 22 671€ Uae-Meydan Madkhal 55 Plat
17/12/20 10 Galop 29 411€ Uae-Meydan Emirates Currency 56 Plat
17/12/20 4 Galop 32 475€ Uae-Meydan Salute The Soldier 59 Plat
17/12/20 5 Galop 21 446€ Uae-Meydan Kanood 56,5 Plat
17/12/20 5 Galop 23 897€ Uae-Meydan Goshawke (Ar) 56 Plat
03/12/20 9 Galop 29 411€ Uae-Meydan Chosen Mark 58,5 Plat
03/12/20 5 Galop 32 475€ Uae-Meydan Mazzini 58 Plat
03/12/20 10 Galop 20 220€ Uae-Meydan Imprison 57 Plat
03/12/20 1 Galop 20 220€ Uae-Meydan Kanood 59 Plat
05/11/20 2 Galop 23 284€ Uae-Meydan Big Kitten 56 Plat
05/11/20 8 Galop 22 671€ Uae-Meydan Speedy Move 55,5 Plat
05/11/20 4 Galop 29 411€ Uae-Meydan Sanad Libya 57,5 Plat